Home > Time Zones > World Clock > Weather > Egypt > Cairo > Past weeks

Flag for Egypt Weather past 2 weeks in Cairo, Egypt

Now
77 °F

Clear.


Feels Like: 78 °F
Forecast: 74 / 97 °F
Wind: 3 mph from North

Location: Cairo Airport

Current Time: Aug 30, 2015 at 1:57:47 AM

Latest Report: Aug 30, 2015 at 1:30 AM


Visibility: 10 mi

Pressure: 29.89 "Hg

Humidity: 83%

Dew point: 72 °F

Location of CairoLocation

Historic Weather in Cairo — Graph

°F

Cairo temperature yesterday

Maximum temperature yesterday: 93 °F (at 1:30 PM)
Minimum temperature yesterday: 75 °F (at 6:30 AM)
Average temperature yesterday: 84 °F

Past Weeks' High & Low Weather Summary

 TemperatureHumidityPressure
High108 °F (Aug 16, 1:00 PM)89% (Aug 17, 4:30 AM)29.92 "Hg (Aug 17, 4:30 AM)
Low75 °F (Aug 20, 5:00 AM)13% (Aug 15, 1:30 PM)29.71 "Hg (Aug 16, 1:30 AM)
Average87 °F56%29.82 "Hg
* Reported Aug 15 1:00 AM — Aug 30 1:00 AM, Cairo, Weather by CustomWeather, © 2015

Note: Actual official high and low records may vary slightly from our data, if they occured in-between our weather recording intervals... More about our weather records

Advertising

Cairo weather history for previous 24 hours

 ConditionsComfort  
Time TempWeatherWind HumidityBarometerVisibility
1:00 AM
Sun, Aug 30
79 °FClear.6 mph79%29.89 "Hg10 mi
12:30 AM79 °FClear.6 mph74%29.92 "Hg10 mi
12:00 AM79 °FClear.6 mph74%29.92 "Hg10 mi
11:30 PM
Sat, Aug 29
81 °FClear.7 mph70%29.92 "Hg10 mi
11:00 PM81 °FClear.7 mph70%29.92 "Hg10 mi
10:30 PM81 °FClear.6 mph66%29.92 "Hg10 mi
10:00 PM82 °FClear.6 mph51%29.92 "Hg10 mi
9:30 PM84 °FClear.7 mph48%29.92 "Hg10 mi
9:00 PM84 °FClear.7 mph45%29.92 "Hg10 mi
8:30 PM88 °FClear.8 mph38%29.89 "Hg10 mi
8:00 PM88 °FClear.8 mph38%29.89 "Hg10 mi
7:30 PM88 °FClear.10 mph35%29.89 "Hg10 mi
7:00 PM88 °FClear.10 mph35%29.86 "Hg10 mi
6:30 PM90 °FClear.8 mph33%29.86 "Hg10 mi
6:00 PM91 °FSunny.8 mph34%29.86 "Hg10 mi
5:30 PM91 °FSunny.8 mph36%29.86 "Hg10 mi
5:00 PM91 °FSunny.7 mph38%29.86 "Hg10 mi
4:30 PM91 °FSunny.7 mph38%29.86 "Hg10 mi
4:00 PM91 °FSunny.9 mph38%29.86 "Hg10 mi
3:30 PM91 °FSunny.8 mph38%29.86 "Hg10 mi
3:00 PM93 °FSunny.7 mph34%29.86 "Hg10 mi
2:30 PM91 °FSunny.16 mph28%29.86 "Hg10 mi
2:00 PM93 °FSunny.16 mph26%29.89 "Hg10 mi
1:30 PM93 °FSunny.10 mph24%29.89 "Hg10 mi
1:00 PM91 °FSunny.9 mph26%29.89 "Hg10 mi
12:00 PM91 °FSunny.8 mph26%29.89 "Hg10 mi
11:00 AM88 °FSunny.10 mph46%29.92 "Hg10 mi
9:00 AM81 °FPassing clouds.3 mph70%29.92 "Hg4 mi
8:00 AM81 °FScattered clouds.6 mph79%29.92 "Hg4 mi
7:30 AM77 °FFog.6 mph83%29.92 "Hg4 mi
7:00 AM77 °FFog.6 mph83%29.92 "Hg2 mi
6:30 AM75 °FFog.5 mph89%29.92 "Hg2 mi
6:00 AM77 °FFog.6 mph83%29.92 "Hg2 mi
5:30 AM79 °FClear.6 mph84%29.89 "Hg4 mi
5:00 AM79 °FClear.6 mph84%29.89 "Hg4 mi
4:34 AM77 °FClear.No wind83%29.89 "Hg4 mi
4:00 AM77 °FClear.No wind83%29.89 "Hg10 mi
3:30 AM79 °FClear.5 mph84%29.89 "Hg10 mi
3:00 AM79 °FClear.5 mph84%29.89 "Hg10 mi
2:30 AM81 °FClear.No wind84%29.89 "Hg10 mi
2:00 AM81 °FClear.No wind84%29.89 "Hg10 mi
1:30 AM79 °FClear.5 mph74%29.92 "Hg10 mi
1:00 AM79 °FClear.5 mph74%29.92 "Hg10 mi
Weather by CustomWeather, © 2015

See weather overviewHow to use our weather pages